"Data set title: Gaging station water sample data. Usage: Event based table used with water chemistry collection from 01-Oct-2019 to 30-Sep-2020",,,,,,,,,,,,
,,,,,,,,,,,,,
"Site","Date","RecNum","SiteID","Flag_SiteID","LOGGERID","PROGID","VNOTCH_INST_0_0_01","Flag_VNOTCH_INST_0_0_01","SAMPLE_INST_0_0_01","Flag_SAMPLE_INST_0_0_01","STAGE_INST_0_0_01","Flag_STAGE_INST_0_0_01"
"","yyyy-MM-dd HH:mm:ss","count","","none","none","none","none","none","count","none","ft","none"
"nominal","datetime","nominal","data","code","nominal","nominal","data","code","data","code","data","code"
"GSWS07_119",2019-10-01 01:23:00,724,107.00,"",119,5749.0,0,"",11,"",0.0370,""
"GSWS07_119",2019-10-01 14:41:00,725,107.00,"",119,5749.0,0,"",12,"",0.0370,""
"GSWS07_119",2019-10-02 03:59:00,726,107.00,"",119,5749.0,0,"",13,"",0.0360,""
"GSWS07_119",2019-10-02 17:17:00,727,107.00,"",119,5749.0,0,"",14,"",0.0360,""
"GSWS07_119",2019-10-03 06:35:00,728,107.00,"",119,5749.0,0,"",15,"",0.0400,""
"GSWS07_119",2019-10-03 19:53:00,729,107.00,"",119,5749.0,0,"",16,"",0.0370,""
"GSWS07_119",2019-10-04 09:11:00,730,107.00,"",119,5749.0,0,"",17,"",0.0400,""
"GSWS07_119",2019-10-04 22:29:00,731,107.00,"",119,5749.0,0,"",18,"",0.0390,""
"GSWS07_119",2019-10-05 11:47:00,732,107.00,"",119,5749.0,0,"",19,"",0.0380,""
"GSWS07_119",2019-10-06 01:05:00,733,107.00,"",119,5749.0,0,"",20,"",0.0370,""
"GSWS07_119",2019-10-06 14:23:00,734,107.00,"",119,5749.0,0,"",21,"",0.0350,""
"GSWS07_119",2019-10-07 03:41:00,735,107.00,"",119,5749.0,0,"",22,"",0.0350,""
"GSWS07_119",2019-10-07 16:59:00,736,107.00,"",119,5749.0,0,"",23,"",0.0350,""
"GSWS07_119",2019-10-08 06:17:00,737,107.00,"",119,5749.0,0,"",24,"",0.0350,""
"GSWS07_119",2019-10-08 19:35:00,738,107.00,"",119,5749.0,0,"",25,"",0.0410,""
"GSWS07_119",2019-10-09 08:53:00,739,107.00,"",119,5749.0,0,"",26,"",0.0390,""
"GSWS07_119",2019-10-09 22:11:00,740,107.00,"",119,5749.0,0,"",27,"",0.0380,""
"GSWS07_119",2019-10-10 11:29:00,741,107.00,"",119,5749.0,0,"",28,"",0.0370,""
"GSWS07_119",2019-10-11 00:47:00,742,107.00,"",119,5749.0,0,"",29,"",0.0360,""
"GSWS07_119",2019-10-11 14:05:00,743,107.00,"",119,5749.0,0,"",30,"",0.0350,""
"GSWS07_119",2019-10-12 03:23:00,744,107.00,"",119,5749.0,0,"",31,"",0.0350,""
"GSWS07_119",2019-10-12 16:41:00,745,107.00,"",119,5749.0,0,"",32,"",0.0350,""
"GSWS07_119",2019-10-13 05:59:00,746,107.00,"",119,5749.0,0,"",33,"",0.0350,""
"GSWS07_119",2019-10-13 19:17:00,747,107.00,"",119,5749.0,0,"",34,"",0.0350,""
"GSWS07_119",2019-10-14 08:35:00,748,107.00,"",119,5749.0,0,"",35,"",0.0350,""
"GSWS07_119",2019-10-14 21:53:00,749,107.00,"",119,5749.0,0,"",36,"",0.0350,""
"GSWS07_119",2019-10-15 11:11:00,750,107.00,"",119,5749.0,0,"",37,"",0.0350,""
"GSWS07_119",2019-10-16 00:29:00,751,107.00,"",119,5749.0,0,"",38,"",0.0340,""
"GSWS07_119",2019-10-16 13:47:00,752,107.00,"",119,5749.0,0,"",1,"",0.0380,""
"GSWS07_119",2019-10-17 03:05:00,753,107.00,"",119,5749.0,0,"",2,"",0.0500,""
"GSWS07_119",2019-10-17 16:23:00,754,107.00,"",119,5749.0,0,"",3,"",0.0540,""
"GSWS07_119",2019-10-18 05:41:00,755,107.00,"",119,5749.0,0,"",4,"",0.0720,""
"GSWS07_119",2019-10-18 18:59:00,756,107.00,"",119,5749.0,0,"",5,"",0.0580,""
"GSWS07_119",2019-10-19 08:17:00,757,107.00,"",119,5749.0,0,"",6,"",0.1180,""
"GSWS07_119",2019-10-19 21:35:00,758,107.00,"",119,5749.0,0,"",7,"",0.0930,""
"GSWS07_119",2019-10-20 10:53:00,759,107.00,"",119,5749.0,0,"",8,"",0.0780,""
"GSWS07_119",2019-10-21 00:11:00,760,107.00,"",119,5749.0,0,"",9,"",0.0720,""
"GSWS07_119",2019-10-21 13:29:00,761,107.00,"",119,5749.0,0,"",10,"",0.0650,""
"GSWS07_119",2019-10-22 02:47:00,762,107.00,"",119,5749.0,0,"",11,"",0.0600,""
"GSWS07_119",2019-10-22 16:05:00,763,107.00,"",119,5749.0,0,"",12,"",0.0720,""
"GSWS07_119",2019-10-23 05:23:00,764,107.00,"",119,5749.0,0,"",13,"",0.0660,""
"GSWS07_119",2019-10-24 04:04:00,0,107.00,"",119,55521.0,0,"",1,"",0.0580,""
"GSWS07_119",2019-10-24 17:22:00,1,107.00,"",119,55521.0,0,"",2,"",0.0540,""
"GSWS07_119",2019-10-25 06:40:00,2,107.00,"",119,55521.0,0,"",3,"",0.0520,""
"GSWS07_119",2019-10-25 19:58:00,3,107.00,"",119,55521.0,0,"",4,"",0.0500,""
"GSWS07_119",2019-10-26 09:16:00,4,107.00,"",119,55521.0,0,"",5,"",0.0500,""
"GSWS07_119",2019-10-26 22:34:00,5,107.00,"",119,55521.0,0,"",6,"",0.0490,""
"GSWS07_119",2019-10-27 11:52:00,6,107.00,"",119,55521.0,0,"",7,"",0.0470,""
"GSWS07_119",2019-10-28 01:10:00,7,107.00,"",119,55521.0,0,"",8,"",0.0450,""
"GSWS07_119",2019-10-28 14:28:00,8,107.00,"",119,55521.0,0,"",9,"",0.0450,""
"GSWS07_119",2019-10-29 03:46:00,9,107.00,"",119,55521.0,0,"",10,"",0.0450,""
"GSWS07_119",2019-10-29 17:04:00,10,107.00,"",119,55521.0,0,"",11,"",0.0450,""
"GSWS07_119",2019-10-30 06:22:00,11,107.00,"",119,55521.0,0,"",12,"",0.0450,""
"GSWS07_119",2019-10-30 19:40:00,12,107.00,"",119,55521.0,0,"",13,"",0.0450,""
"GSWS07_119",2019-10-31 08:58:00,13,107.00,"",119,55521.0,0,"",14,"",0.0450,""
"GSWS07_119",2019-10-31 22:16:00,14,107.00,"",119,55521.0,0,"",15,"",0.0440,""
"GSWS07_119",2019-11-01 11:34:00,15,107.00,"",119,55521.0,0,"",16,"",0.0440,""
"GSWS07_119",2019-11-02 00:52:00,16,107.00,"",119,55521.0,0,"",17,"",0.0420,""
"GSWS07_119",2019-11-02 14:10:00,17,107.00,"",119,55521.0,0,"",18,"",0.0420,""
"GSWS07_119",2019-11-03 03:28:00,18,107.00,"",119,55521.0,0,"",19,"",0.0420,""
"GSWS07_119",2019-11-03 16:46:00,19,107.00,"",119,55521.0,0,"",20,"",0.0420,""
"GSWS07_119",2019-11-04 06:04:00,20,107.00,"",119,55521.0,0,"",21,"",0.0420,""
"GSWS07_119",2019-11-04 19:22:00,21,107.00,"",119,55521.0,0,"",22,"",0.0410,""
"GSWS07_119",2019-11-05 08:40:00,22,107.00,"",119,55521.0,0,"",23,"",0.0410,""
"GSWS07_119",2019-11-05 21:58:00,23,107.00,"",119,55521.0,0,"",24,"",0.0410,""
"GSWS07_119",2019-11-06 11:16:00,24,107.00,"",119,55521.0,0,"",25,"",0.0410,""
"GSWS07_119",2019-11-06 17:09:30,25,107.00,"",119,55521.0,0,"",26,"",0.0410,""
"GSWS07_119",2019-11-07 00:34:00,26,107.00,"",119,55521.0,0,"",1,"",0.0350,""
"GSWS07_119",2019-11-07 13:49:00,27,107.00,"",119,55521.0,0,"",2,"",0.0340,""
"GSWS07_119",2019-11-07 13:49:45,28,107.00,"",119,55521.0,0,"",3,"",0.0340,""
"GSWS07_119",2019-11-07 16:08:15,29,107.00,"",119,55521.0,0,"",2,"",0.0340,""
"GSWS07_119",2019-11-08 05:26:15,30,107.00,"",119,55521.0,0,"",3,"",0.0340,""
"GSWS07_119",2019-11-08 18:44:15,31,107.00,"",119,55521.0,0,"",4,"",0.0340,""
"GSWS07_119",2019-11-09 08:02:15,32,107.00,"",119,55521.0,0,"",5,"",0.0340,""
"GSWS07_119",2019-11-09 21:20:15,33,107.00,"",119,55521.0,0,"",6,"",0.0340,""
"GSWS07_119",2019-11-10 10:38:15,34,107.00,"",119,55521.0,0,"",7,"",0.0340,""
"GSWS07_119",2019-11-10 23:56:15,35,107.00,"",119,55521.0,0,"",8,"",0.0340,""
"GSWS07_119",2019-11-11 13:14:15,36,107.00,"",119,55521.0,0,"",9,"",0.0340,""
"GSWS07_119",2019-11-12 02:32:15,37,107.00,"",119,55521.0,0,"",10,"",0.0340,""
"GSWS07_119",2019-11-12 15:50:15,38,107.00,"",119,55521.0,0,"",11,"",0.0350,""
"GSWS07_119",2019-11-13 05:08:15,39,107.00,"",119,55521.0,0,"",12,"",0.0340,""
"GSWS07_119",2019-11-13 18:26:15,40,107.00,"",119,55521.0,0,"",13,"",0.0350,""
"GSWS07_119",2019-11-14 07:44:15,41,107.00,"",119,55521.0,0,"",14,"",0.0350,""
"GSWS07_119",2019-11-14 21:02:15,42,107.00,"",119,55521.0,0,"",15,"",0.0350,""
"GSWS07_119",2019-11-15 10:20:15,43,107.00,"",119,55521.0,0,"",16,"",0.0440,""
"GSWS07_119",2019-11-15 23:38:15,44,107.00,"",119,55521.0,0,"",17,"",0.0380,""
"GSWS07_119",2019-11-16 12:56:15,45,107.00,"",119,55521.0,0,"",18,"",0.0380,""
"GSWS07_119",2019-11-17 02:14:15,46,107.00,"",119,55521.0,0,"",19,"",0.0370,""
"GSWS07_119",2019-11-17 15:32:15,47,107.00,"",119,55521.0,0,"",20,"",0.0370,""
"GSWS07_119",2019-11-18 04:50:15,48,107.00,"",119,55521.0,0,"",21,"",0.0370,""
"GSWS07_119",2019-11-18 18:08:15,49,107.00,"",119,55521.0,0,"",22,"",0.0400,""
"GSWS07_119",2019-11-19 07:26:15,50,107.00,"",119,55521.0,0,"",23,"",0.0480,""
"GSWS07_119",2019-11-19 20:44:15,51,107.00,"",119,55521.0,0,"",24,"",0.0470,""
"GSWS07_119",2019-11-20 10:02:15,52,107.00,"",119,55521.0,0,"",25,"",0.0430,""
"GSWS07_119",2019-11-20 23:20:15,53,107.00,"",119,55521.0,0,"",26,"",0.0400,""
"GSWS07_119",2019-11-21 12:38:15,54,107.00,"",119,55521.0,0,"",27,"",0.0370,""
"GSWS07_119",2019-11-22 01:56:15,55,107.00,"",119,55521.0,0,"",28,"",0.0370,""
"GSWS07_119",2019-11-22 15:14:15,56,107.00,"",119,55521.0,0,"",29,"",0.0370,""
"GSWS07_119",2019-11-23 04:32:15,57,107.00,"",119,55521.0,0,"",30,"",0.0370,""
"GSWS07_119",2019-11-23 17:50:15,58,107.00,"",119,55521.0,0,"",31,"",0.0370,""
"GSWS07_119",2019-11-24 07:08:15,59,107.00,"",119,55521.0,0,"",32,"",0.0370,""
"GSWS07_119",2019-11-24 20:26:15,60,107.00,"",119,55521.0,0,"",33,"",0.0380,""
"GSWS07_119",2019-11-25 09:44:15,61,107.00,"",119,55521.0,0,"",34,"",0.0370,""
"GSWS07_119",2019-11-25 14:06:45,62,107.00,"",119,55521.0,0,"",35,"",0.0400,""
"GSWS07_119",2019-11-25 23:02:15,63,107.00,"",119,55521.0,0,"",1,"",0.0390,""
"GSWS07_119",2019-11-26 12:20:15,64,107.00,"",119,55521.0,0,"",2,"",0.0390,""
"GSWS07_119",2019-11-27 01:38:15,65,107.00,"",119,55521.0,0,"",3,"",0.0390,""
"GSWS07_119",2019-11-27 14:56:15,66,107.00,"",119,55521.0,0,"",4,"",0.0390,""
"GSWS07_119",2019-11-28 04:14:15,67,107.00,"",119,55521.0,0,"",5,"",0.0390,""
"GSWS07_119",2019-11-28 17:32:15,68,107.00,"",119,55521.0,0,"",6,"",0.0390,""
"GSWS07_119",2019-11-29 06:50:15,69,107.00,"",119,55521.0,0,"",7,"",0.0390,""
"GSWS07_119",2019-11-29 20:08:15,70,107.00,"",119,55521.0,0,"",8,"",0.0390,""
"GSWS07_119",2019-11-30 09:26:15,71,107.00,"",119,55521.0,0,"",9,"",0.0390,""
"GSWS07_119",2019-11-30 22:44:15,72,107.00,"",119,55521.0,0,"",10,"",0.0390,""
"GSWS07_119",2019-12-01 12:02:15,73,107.00,"",119,55521.0,0,"",11,"",0.0390,""
"GSWS07_119",2019-12-02 01:20:15,74,107.00,"",119,55521.0,0,"",12,"",0.0390,""
"GSWS07_119",2019-12-02 14:38:15,75,107.00,"",119,55521.0,0,"",13,"",0.0390,""
"GSWS07_119",2019-12-03 03:56:15,76,107.00,"",119,55521.0,0,"",14,"",0.0400,""
"GSWS07_119",2019-12-03 17:14:15,77,107.00,"",119,55521.0,0,"",15,"",0.0430,""
"GSWS07_119",2019-12-04 06:32:15,78,107.00,"",119,55521.0,0,"",16,"",0.0430,""
"GSWS07_119",2019-12-04 19:50:15,79,107.00,"",119,55521.0,0,"",17,"",0.0430,""
"GSWS07_119",2019-12-05 09:08:15,80,107.00,"",119,55521.0,0,"",18,"",0.0430,""
"GSWS07_119",2019-12-05 22:26:15,81,107.00,"",119,55521.0,0,"",19,"",0.0410,""
"GSWS07_119",2019-12-06 11:44:15,82,107.00,"",119,55521.0,0,"",20,"",0.0410,""
"GSWS07_119",2019-12-07 01:02:15,83,107.00,"",119,55521.0,0,"",21,"",0.0420,""
"GSWS07_119",2019-12-07 14:20:15,84,107.00,"",119,55521.0,0,"",22,"",0.0460,""
"GSWS07_119",2019-12-08 03:38:15,85,107.00,"",119,55521.0,0,"",23,"",0.0480,""
"GSWS07_119",2019-12-08 16:56:15,86,107.00,"",119,55521.0,0,"",24,"",0.0490,""
"GSWS07_119",2019-12-09 06:14:15,87,107.00,"",119,55521.0,0,"",25,"",0.0470,""
"GSWS07_119",2019-12-09 19:32:15,88,107.00,"",119,55521.0,0,"",26,"",0.0450,""
"GSWS07_119",2019-12-10 08:50:15,89,107.00,"",119,55521.0,0,"",27,"",0.0450,""
"GSWS07_119",2019-12-10 22:08:15,90,107.00,"",119,55521.0,0,"",28,"",0.0440,""
"GSWS07_119",2019-12-11 11:26:15,91,107.00,"",119,55521.0,0,"",29,"",0.0450,""
"GSWS07_119",2019-12-12 00:44:15,92,107.00,"",119,55521.0,0,"",30,"",0.1050,""
"GSWS07_119",2019-12-12 14:02:15,93,107.00,"",119,55521.0,0,"",31,"",0.1430,""
"GSWS07_119",2019-12-13 03:20:15,94,107.00,"",119,55521.0,0,"",32,"",0.1390,""
"GSWS07_119",2019-12-13 16:38:15,95,107.00,"",119,55521.0,0,"",33,"",0.1390,""
"GSWS07_119",2019-12-14 05:56:15,96,107.00,"",119,55521.0,0,"",34,"",0.1110,""
"GSWS07_119",2019-12-14 19:14:15,97,107.00,"",119,55521.0,0,"",35,"",0.0930,""
"GSWS07_119",2019-12-15 08:32:15,98,107.00,"",119,55521.0,0,"",36,"",0.0800,""
"GSWS07_119",2019-12-15 21:50:15,99,107.00,"",119,55521.0,0,"",37,"",0.0720,""
"GSWS07_119",2019-12-16 11:08:15,100,107.00,"",119,55521.0,0,"",38,"",0.0670,""
"GSWS07_119",2019-12-17 00:26:15,101,107.00,"",119,55521.0,0,"",39,"",0.0640,""
"GSWS07_119",2019-12-17 13:44:15,102,107.00,"",119,55521.0,0,"",1,"",0.0600,""
"GSWS07_119",2019-12-18 03:02:15,103,107.00,"",119,55521.0,0,"",2,"",0.0590,""
"GSWS07_119",2019-12-18 16:20:15,104,107.00,"",119,55521.0,0,"",3,"",0.0570,""
"GSWS07_119",2019-12-19 05:38:15,105,107.00,"",119,55521.0,0,"",4,"",0.0920,""
"GSWS07_119",2019-12-19 18:56:15,106,107.00,"",119,55521.0,0,"",5,"",0.2300,""
"GSWS07_119",2019-12-20 08:14:15,107,107.00,"",119,55521.0,0,"",6,"",0.1810,""
"GSWS07_119",2019-12-20 21:32:15,108,107.00,"",119,55521.0,0,"",7,"",0.1400,""
"GSWS07_119",2019-12-21 10:50:15,109,107.00,"",119,55521.0,0,"",8,"",0.1160,""
"GSWS07_119",2019-12-22 00:08:15,110,107.00,"",119,55521.0,0,"",9,"",0.1120,""
"GSWS07_119",2019-12-22 13:26:15,111,107.00,"",119,55521.0,0,"",10,"",0.1060,""
"GSWS07_119",2019-12-23 02:44:15,112,107.00,"",119,55521.0,0,"",11,"",0.1010,""
"GSWS07_119",2019-12-23 16:02:00,113,107.00,"",119,55521.0,0,"",12,"",0.0970,""
"GSWS07_119",2019-12-24 05:20:00,114,107.00,"",119,55521.0,0,"",13,"",0.0930,""
"GSWS07_119",2019-12-24 18:38:00,115,107.00,"",119,55521.0,0,"",14,"",0.0890,""
"GSWS07_119",2019-12-25 07:56:00,116,107.00,"",119,55521.0,0,"",15,"",0.0850,""
"GSWS07_119",2019-12-25 21:14:00,117,107.00,"",119,55521.0,0,"",16,"",0.0810,""
"GSWS07_119",2019-12-26 10:32:00,118,107.00,"",119,55521.0,0,"",17,"",0.0780,""
"GSWS07_119",2019-12-26 23:50:00,119,107.00,"",119,55521.0,0,"",18,"",0.0750,""
"GSWS07_119",2019-12-27 13:08:00,120,107.00,"",119,55521.0,0,"",19,"",0.0730,""
"GSWS07_119",2019-12-28 02:26:00,121,107.00,"",119,55521.0,0,"",20,"",0.0710,""
"GSWS07_119",2019-12-28 15:44:00,122,107.00,"",119,55521.0,0,"",21,"",0.0700,""
"GSWS07_119",2019-12-29 05:02:00,123,107.00,"",119,55521.0,0,"",22,"",0.0690,""
"GSWS07_119",2019-12-29 18:20:00,124,107.00,"",119,55521.0,0,"",23,"",0.0680,""
"GSWS07_119",2019-12-30 07:38:00,125,107.00,"",119,55521.0,0,"",24,"",0.0660,""
"GSWS07_119",2019-12-30 20:56:00,126,107.00,"",119,55521.0,0,"",25,"",0.0650,""
"GSWS07_119",2019-12-31 10:14:00,127,107.00,"",119,55521.0,0,"",26,"",0.0640,""
"GSWS07_119",2019-12-31 23:32:00,128,107.00,"",119,55521.0,0,"",27,"",0.1880,""
"GSWS07_119",2020-01-01 12:50:00,129,107.00,"",119,55521.0,0,"",28,"",0.2010,""
"GSWS07_119",2020-01-02 02:08:00,130,107.00,"",119,55521.0,0,"",29,"",0.1850,""
"GSWS07_119",2020-01-02 15:26:00,131,107.00,"",119,55521.0,0,"",30,"",0.1710,""
"GSWS07_119",2020-01-03 04:44:00,132,107.00,"",119,55521.0,0,"",31,"",0.1540,""
"GSWS07_119",2020-01-03 18:02:00,133,107.00,"",119,55521.0,0,"",32,"",0.1390,""
"GSWS07_119",2020-01-04 07:20:45,134,107.00,"",119,55521.0,0,"",33,"",0.1280,""
"GSWS07_119",2020-01-04 20:38:45,135,107.00,"",119,55521.0,0,"",34,"",0.1200,""
"GSWS07_119",2020-01-05 09:56:45,136,107.00,"",119,55521.0,0,"",35,"",0.1160,""
"GSWS07_119",2020-01-05 23:14:45,137,107.00,"",119,55521.0,0,"",36,"",0.1110,""
"GSWS07_119",2020-01-06 12:32:45,138,107.00,"",119,55521.0,0,"",37,"",0.1100,""
"GSWS07_119",2020-01-07 01:50:45,139,107.00,"",119,55521.0,0,"",38,"",0.1730,""
"GSWS07_119",2020-01-07 15:08:45,140,107.00,"",119,55521.0,0,"",39,"",0.1790,""
"GSWS07_119",2020-01-08 04:26:45,141,107.00,"",119,55521.0,0,"",40,"",0.2420,""
"GSWS07_119",2020-01-08 11:48:30,142,107.00,"",119,55521.0,0,"",41,"",0.2470,""
"GSWS07_119",2020-01-08 17:44:45,143,107.00,"",119,55521.0,0,"",1,"",0.2380,""
"GSWS07_119",2020-01-09 07:02:45,144,107.00,"",119,55521.0,0,"",2,"",0.2260,""
"GSWS07_119",2020-01-09 20:20:45,145,107.00,"",119,55521.0,0,"",3,"",0.1990,""
"GSWS07_119",2020-01-10 09:38:45,146,107.00,"",119,55521.0,0,"",4,"",0.1800,""
"GSWS07_119",2020-01-10 22:56:45,147,107.00,"",119,55521.0,0,"",5,"",0.2080,""
"GSWS07_119",2020-01-11 12:14:45,148,107.00,"",119,55521.0,0,"",6,"",0.2110,""
"GSWS07_119",2020-01-12 01:32:45,149,107.00,"",119,55521.0,0,"",7,"",0.2000,""
"GSWS07_119",2020-01-12 14:50:45,150,107.00,"",119,55521.0,0,"",8,"",0.1880,""
"GSWS07_119",2020-01-13 04:08:45,151,107.00,"",119,55521.0,0,"",9,"",0.1760,""
"GSWS07_119",2020-01-13 17:26:45,152,107.00,"",119,55521.0,0,"",10,"",0.1710,""
"GSWS07_119",2020-01-14 06:44:45,153,107.00,"",119,55521.0,0,"",11,"",0.1670,""
"GSWS07_119",2020-01-14 20:02:45,154,107.00,"",119,55521.0,0,"",12,"",0.1570,""
"GSWS07_119",2020-01-15 09:20:45,155,107.00,"",119,55521.0,0,"",13,"",0.1520,""
"GSWS07_119",2020-01-15 22:38:45,156,107.00,"",119,55521.0,0,"",14,"",0.1480,""
"GSWS07_119",2020-01-16 11:56:30,157,107.00,"",119,55521.0,0,"",15,"",0.1430,""
"GSWS07_119",2020-01-17 01:14:45,158,107.00,"",119,55521.0,0,"",16,"",0.1400,""
"GSWS07_119",2020-01-17 14:32:45,159,107.00,"",119,55521.0,0,"",17,"",0.1310,""
"GSWS07_119",2020-01-18 03:50:30,160,107.00,"",119,55521.0,0,"",18,"",0.1290,""
"GSWS07_119",2020-01-18 17:08:30,161,107.00,"",119,55521.0,0,"",19,"",0.1350,""
"GSWS07_119",2020-01-19 06:26:45,162,107.00,"",119,55521.0,0,"",20,"",0.1670,""
"GSWS07_119",2020-01-19 19:44:45,163,107.00,"",119,55521.0,0,"",21,"",0.1780,""
"GSWS07_119",2020-01-20 09:02:30,164,107.00,"",119,55521.0,0,"",22,"",0.1780,""
"GSWS07_119",2020-01-20 22:20:30,165,107.00,"",119,55521.0,0,"",23,"",0.1780,""
"GSWS07_119",2020-01-21 11:38:45,166,107.00,"",119,55521.0,0,"",24,"",0.1860,""
"GSWS07_119",2020-01-22 00:56:45,167,107.00,"",119,55521.0,0,"",25,"",0.2090,""
"GSWS07_119",2020-01-22 14:14:30,168,107.00,"",119,55521.0,0,"",26,"",0.2370,""
"GSWS07_119",2020-01-23 03:32:30,169,107.00,"",119,55521.0,0,"",27,"",0.3220,""
"GSWS07_119",2020-01-23 16:50:30,170,107.00,"",119,55521.0,0,"",28,"",0.3470,""
"GSWS07_119",2020-01-23 23:28:30,171,107.00,"",119,55521.0,0,"",29,"",0.3690,""
"GSWS07_119",2020-01-24 06:06:30,172,107.00,"",119,55521.0,0,"",30,"",0.4260,""
"GSWS07_119",2020-01-24 12:44:30,173,107.00,"",119,55521.0,0,"",31,"",0.4310,""
"GSWS07_119",2020-01-24 19:22:30,174,107.00,"",119,55521.0,0,"",32,"",0.4410,""
"GSWS07_119",2020-01-25 02:00:30,175,107.00,"",119,55521.0,0,"",33,"",0.4340,""
"GSWS07_119",2020-01-25 08:38:30,176,107.00,"",119,55521.0,0,"",34,"",0.4350,""
"GSWS07_119",2020-01-25 15:16:30,177,107.00,"",119,55521.0,0,"",35,"",0.4320,""
"GSWS07_119",2020-01-25 21:54:30,178,107.00,"",119,55521.0,0,"",36,"",0.4310,""
"GSWS07_119",2020-01-26 04:32:15,179,107.00,"",119,55521.0,0,"",37,"",0.4810,""
"GSWS07_119",2020-01-26 11:10:15,180,107.00,"",119,55521.0,0,"",38,"",0.4870,""
"GSWS07_119",2020-01-26 17:48:15,181,107.00,"",119,55521.0,0,"",39,"",0.4820,""
"GSWS07_119",2020-01-27 00:26:45,182,107.00,"",119,55521.0,0,"",40,"",0.4870,""
"GSWS07_119",2020-01-27 07:04:45,183,107.00,"",119,55521.0,0,"",41,"",0.4760,""
"GSWS07_119",2020-01-27 13:42:45,184,107.00,"",119,55521.0,0,"",42,"",0.4640,""
"GSWS07_119",2020-01-27 20:20:45,185,107.00,"",119,55521.0,0,"",43,"",0.4830,""
"GSWS07_119",2020-01-28 00:46:45,186,107.00,"",119,55521.0,0,"",44,"",0.5090,""
"GSWS07_119",2020-01-28 05:12:45,187,107.00,"",119,55521.0,0,"",45,"",0.5200,""
"GSWS07_119",2020-01-28 09:38:45,188,107.00,"",119,55521.0,0,"",46,"",0.5500,""
"GSWS07_119",2020-01-28 14:04:45,189,107.00,"",119,55521.0,0,"",47,"",0.5980,""
"GSWS07_119",2020-01-28 15:52:45,190,107.00,"",119,55521.0,0,"",48,"",0.6150,""
"GSWS07_119",2020-01-28 17:26:45,191,107.00,"",119,55521.0,0,"",1,"",0.6210,""
"GSWS07_119",2020-01-28 20:48:45,192,107.00,"",119,55521.0,0,"",2,"",0.6210,""
"GSWS07_119",2020-01-29 00:10:45,193,107.00,"",119,55521.0,0,"",3,"",0.6170,""
"GSWS07_119",2020-01-29 04:36:45,194,107.00,"",119,55521.0,0,"",4,"",0.6020,""
"GSWS07_119",2020-01-29 09:02:45,195,107.00,"",119,55521.0,0,"",5,"",0.5870,""
"GSWS07_119",2020-01-29 13:28:45,196,107.00,"",119,55521.0,0,"",6,"",0.5300,""
"GSWS07_119",2020-01-29 17:54:45,197,107.00,"",119,55521.0,0,"",7,"",0.5190,""
"GSWS07_119",2020-01-29 22:20:45,198,107.00,"",119,55521.0,0,"",8,"",0.5170,""
"GSWS07_119",2020-01-30 04:58:45,199,107.00,"",119,55521.0,0,"",9,"",0.4910,""
"GSWS07_119",2020-01-30 11:36:45,200,107.00,"",119,55521.0,0,"",10,"",0.4610,""
"GSWS07_119",2020-01-30 18:14:45,201,107.00,"",119,55521.0,0,"",11,"",0.4410,""
"GSWS07_119",2020-01-31 00:52:45,202,107.00,"",119,55521.0,0,"",12,"",0.4310,""
"GSWS07_119",2020-01-31 07:30:45,203,107.00,"",119,55521.0,0,"",13,"",0.4260,""
"GSWS07_119",2020-01-31 14:08:45,204,107.00,"",119,55521.0,0,"",14,"",0.4210,""
"GSWS07_119",2020-01-31 20:46:45,205,107.00,"",119,55521.0,0,"",15,"",0.4180,""
"GSWS07_119",2020-02-01 03:24:45,206,107.00,"",119,55521.0,0,"",16,"",0.4180,""
"GSWS07_119",2020-02-01 10:02:45,207,107.00,"",119,55521.0,0,"",17,"",0.4170,""
"GSWS07_119",2020-02-01 16:40:00,208,107.00,"",119,55521.0,0,"",18,"",0.4440,""
"GSWS07_119",2020-02-01 23:18:00,209,107.00,"",119,55521.0,0,"",19,"",0.4540,""
"GSWS07_119",2020-02-02 05:56:45,210,107.00,"",119,55521.0,0,"",20,"",0.4440,""
"GSWS07_119",2020-02-02 12:34:45,211,107.00,"",119,55521.0,0,"",21,"",0.4350,""
"GSWS07_119",2020-02-02 19:12:45,212,107.00,"",119,55521.0,0,"",22,"",0.4220,""
"GSWS07_119",2020-02-03 01:50:45,213,107.00,"",119,55521.0,0,"",23,"",0.4050,""
"GSWS07_119",2020-02-03 08:28:45,214,107.00,"",119,55521.0,0,"",24,"",0.3950,""
"GSWS07_119",2020-02-03 15:06:45,215,107.00,"",119,55521.0,0,"",25,"",0.3690,""
"GSWS07_119",2020-02-04 04:24:45,216,107.00,"",119,55521.0,0,"",26,"",0.3330,""
"GSWS07_119",2020-02-04 17:42:45,217,107.00,"",119,55521.0,0,"",27,"",0.3060,""
"GSWS07_119",2020-02-05 07:00:45,218,107.00,"",119,55521.0,0,"",28,"",0.2800,""
"GSWS07_119",2020-02-05 20:18:45,219,107.00,"",119,55521.0,0,"",29,"",0.3350,""
"GSWS07_119",2020-02-06 06:42:00,220,107.00,"",119,55521.0,0,"",30,"",0.3630,""
"GSWS07_119",2020-02-06 13:20:00,221,107.00,"",119,55521.0,0,"",31,"",0.3800,""
"GSWS07_119",2020-02-06 19:58:00,222,107.00,"",119,55521.0,0,"",32,"",0.3950,""
"GSWS07_119",2020-02-07 02:36:00,223,107.00,"",119,55521.0,0,"",33,"",0.4110,""
"GSWS07_119",2020-02-07 09:14:00,224,107.00,"",119,55521.0,0,"",34,"",0.4230,""
"GSWS07_119",2020-02-07 15:52:00,225,107.00,"",119,55521.0,0,"",35,"",0.4280,""
"GSWS07_119",2020-02-07 22:30:00,226,107.00,"",119,55521.0,0,"",36,"",0.4300,""
"GSWS07_119",2020-02-08 05:08:00,227,107.00,"",119,55521.0,0,"",37,"",0.4390,""
"GSWS07_119",2020-02-08 11:46:00,228,107.00,"",119,55521.0,0,"",38,"",0.4280,""
"GSWS07_119",2020-02-08 18:24:00,229,107.00,"",119,55521.0,0,"",39,"",0.4140,""
"GSWS07_119",2020-02-09 01:02:00,230,107.00,"",119,55521.0,0,"",40,"",0.3990,""
"GSWS07_119",2020-02-09 07:40:00,231,107.00,"",119,55521.0,0,"",41,"",0.3890,""
"GSWS07_119",2020-02-09 14:18:00,232,107.00,"",119,55521.0,0,"",42,"",0.3790,""
"GSWS07_119",2020-02-10 03:36:00,233,107.00,"",119,55521.0,0,"",43,"",0.3460,""
"GSWS07_119",2020-02-10 16:54:00,234,107.00,"",119,55521.0,0,"",44,"",0.3240,""
"GSWS07_119",2020-02-11 06:12:00,235,107.00,"",119,55521.0,0,"",45,"",0.2990,""
"GSWS07_119",2020-02-11 19:30:00,236,107.00,"",119,55521.0,0,"",46,"",0.2760,""
"GSWS07_119",2020-02-12 08:48:00,237,107.00,"",119,55521.0,0,"",47,"",0.2570,""
"GSWS07_119",2020-02-12 22:06:00,238,107.00,"",119,55521.0,0,"",48,"",0.2460,""
"GSWS07_119",2020-02-13 11:24:00,239,107.00,"",119,55521.0,0,"",49,"",0.2380,""
"GSWS07_119",2020-02-14 00:42:00,240,107.00,"",119,55521.0,0,"",50,"",0.2450,""
"GSWS07_119",2020-02-14 14:00:00,241,107.00,"",119,55521.0,0,"",51,"",0.2420,""
"GSWS07_119",2020-02-15 03:18:00,242,107.00,"",119,55521.0,0,"",52,"",0.2400,""
"GSWS07_119",2020-02-15 16:36:00,243,107.00,"",119,55521.0,0,"",53,"",0.2420,""
"GSWS07_119",2020-02-16 05:54:00,244,107.00,"",119,55521.0,0,"",54,"",0.2430,""
"GSWS07_119",2020-02-16 19:12:00,245,107.00,"",119,55521.0,0,"",55,"",0.2340,""
"GSWS07_119",2020-02-17 08:30:00,246,107.00,"",119,55521.0,0,"",56,"",0.2430,""
"GSWS07_119",2020-02-17 21:48:00,247,107.00,"",119,55521.0,0,"",57,"",0.2390,""
"GSWS07_119",2020-02-18 11:06:00,248,107.00,"",119,55521.0,0,"",58,"",0.2320,""
"GSWS07_119",2020-02-19 00:24:00,249,107.00,"",119,55521.0,0,"",59,"",0.2250,""